AAL1332 KMIA-KCHS

Flight info

Callsign AAL1332
Flight time 0h 47m
Altitude 37000
Route ALTNN2 DUCEN Q87 VIYAP SAV BAGGY3
Aircraft A319/M-SDE3FGHIRWY/LB1

Departure

Time 2026-05-08 15:26
Airport Miami International Airport (KMIA)

Arrival

Time 2026-05-08 16:13
Airport Charleston International Airport (KCHS)
Time Latitude Longitude Altitude Speed Heading
2026-05-08 14:46 25.79897 -80.27265 21 ft 0 kts 170°
2026-05-08 15:17 25.79914 -80.27268 22 ft 3 kts 170°
2026-05-08 15:17 25.79933 -80.27272 25 ft 3 kts 170°
2026-05-08 15:17 25.79951 -80.27275 23 ft 3 kts 170°
2026-05-08 15:17 25.79969 -80.27279 24 ft 2 kts 170°
2026-05-08 15:18 25.79970 -80.27279 24 ft 0 kts 170°
2026-05-08 15:19 25.79967 -80.27278 24 ft 1 kts 170°
2026-05-08 15:20 25.79958 -80.27272 25 ft 0 kts 128°
2026-05-08 15:20 25.79958 -80.27271 25 ft 0 kts 112°
2026-05-08 15:20 25.79960 -80.27265 22 ft 2 kts 83°
2026-05-08 15:20 25.79971 -80.27241 23 ft 4 kts 64°
2026-05-08 15:21 25.79985 -80.27209 24 ft 6 kts 64°
2026-05-08 15:21 25.80006 -80.27156 23 ft 9 kts 70°
2026-05-08 15:21 25.80034 -80.27089 21 ft 10 kts 49°
2026-05-08 15:21 25.80077 -80.27038 20 ft 8 kts 50°
2026-05-08 15:22 25.80098 -80.27010 20 ft 3 kts 51°
2026-05-08 15:22 25.80108 -80.26998 20 ft 3 kts 45°
2026-05-08 15:22 25.80110 -80.26995 20 ft 0 kts 45°
2026-05-08 15:23 25.80111 -80.26995 20 ft 1 kts 45°
2026-05-08 15:24 25.80119 -80.26987 22 ft 3 kts 39°
2026-05-08 15:24 25.80143 -80.26973 21 ft 6 kts 24°
2026-05-08 15:24 25.80182 -80.26961 21 ft 5 kts 13°
2026-05-08 15:24 25.80209 -80.26975 21 ft 5 kts 293°
2026-05-08 15:25 25.80206 -80.27010 21 ft 6 kts 262°
2026-05-08 15:25 25.80191 -80.27206 19 ft 62 kts 267°
2026-05-08 15:25 25.80161 -80.27969 15 ft 132 kts 267°
2026-05-08 15:25 25.80104 -80.29159 292 ft 160 kts 266°
2026-05-08 15:26 25.80069 -80.30412 976 ft 165 kts 279°
2026-05-08 15:26 25.80239 -80.31675 1757 ft 167 kts 279°
2026-05-08 15:26 25.80356 -80.33062 2207 ft 192 kts 276°
2026-05-08 15:26 25.80480 -80.34624 2750 ft 215 kts 276°
2026-05-08 15:27 25.80634 -80.36348 3430 ft 232 kts 276°
2026-05-08 15:27 25.81100 -80.38145 3963 ft 259 kts 302°
2026-05-08 15:27 25.82518 -80.39451 4904 ft 269 kts 336°
2026-05-08 15:27 25.84372 -80.39833 5844 ft 277 kts 359°
2026-05-08 15:28 25.86309 -80.39849 6852 ft 280 kts 359°
2026-05-08 15:28 25.88274 -80.39863 7747 ft 286 kts 359°
2026-05-08 15:28 25.90291 -80.39898 8628 ft 293 kts 359°
2026-05-08 15:28 25.92356 -80.39962 9585 ft 299 kts 358°
2026-05-08 15:29 25.94454 -80.40017 10554 ft 307 kts 358°
2026-05-08 15:29 25.96679 -80.40073 10994 ft 332 kts 358°
2026-05-08 15:29 25.99035 -80.40142 11733 ft 343 kts 357°
2026-05-08 15:29 26.01449 -80.40213 12620 ft 349 kts 357°
2026-05-08 15:30 26.03892 -80.40286 13574 ft 353 kts 356°
2026-05-08 15:30 26.06362 -80.40362 14472 ft 356 kts 356°
2026-05-08 15:30 26.08844 -80.40440 15377 ft 358 kts 355°
2026-05-08 15:30 26.11354 -80.40507 16190 ft 364 kts 356°
2026-05-08 15:31 26.13899 -80.40558 17028 ft 367 kts 356°
2026-05-08 15:31 26.16463 -80.40605 17826 ft 370 kts 355°
2026-05-08 15:31 26.19051 -80.40657 18541 ft 373 kts 355°
2026-05-08 15:31 26.21658 -80.40717 19174 ft 377 kts 355°
2026-05-08 15:32 26.24304 -80.40950 19798 ft 376 kts 344°
2026-05-08 15:32 26.26813 -80.41655 20413 ft 378 kts 341°
2026-05-08 15:32 26.29364 -80.42402 21052 ft 381 kts 341°
2026-05-08 15:32 26.31971 -80.43174 21695 ft 384 kts 341°
2026-05-08 15:33 26.34572 -80.43941 22325 ft 388 kts 341°
2026-05-08 15:33 26.37187 -80.44713 22952 ft 391 kts 341°
2026-05-08 15:33 26.39831 -80.45494 23568 ft 394 kts 341°
2026-05-08 15:33 26.42494 -80.46280 24081 ft 397 kts 341°
2026-05-08 15:34 26.45179 -80.47071 24571 ft 401 kts 341°
2026-05-08 15:34 26.47886 -80.47869 25057 ft 404 kts 341°
2026-05-08 15:34 26.50646 -80.48682 25547 ft 407 kts 341°
2026-05-08 15:34 26.53394 -80.49485 26025 ft 410 kts 341°
2026-05-08 15:35 26.56156 -80.50293 26500 ft 412 kts 340°
2026-05-08 15:35 26.58945 -80.51113 26963 ft 415 kts 340°
2026-05-08 15:35 26.61743 -80.51941 27429 ft 418 kts 340°
2026-05-08 15:35 26.64571 -80.52776 27896 ft 421 kts 340°
2026-05-08 15:36 26.67418 -80.53615 28364 ft 424 kts 340°
2026-05-08 15:36 26.69311 -80.54172 28667 ft 426 kts 340°
2026-05-08 15:36 26.73173 -80.55309 29280 ft 431 kts 340°
2026-05-08 15:36 26.76078 -80.56167 29736 ft 433 kts 340°
2026-05-08 15:37 26.79043 -80.57046 30166 ft 436 kts 340°
2026-05-08 15:37 26.81985 -80.57917 30528 ft 439 kts 340°
2026-05-08 15:37 26.84952 -80.58795 30889 ft 442 kts 340°
2026-05-08 15:37 26.87931 -80.59675 31260 ft 444 kts 340°
2026-05-08 15:38 26.90929 -80.60561 31636 ft 446 kts 340°
2026-05-08 15:38 26.93932 -80.61452 32017 ft 447 kts 340°
2026-05-08 15:38 26.96938 -80.62343 32544 ft 445 kts 339°
2026-05-08 15:38 26.99921 -80.63229 33080 ft 444 kts 339°
2026-05-08 15:39 27.02903 -80.64114 33609 ft 442 kts 339°
2026-05-08 15:39 27.05869 -80.64996 34140 ft 440 kts 339°
2026-05-08 15:39 27.08820 -80.65875 34616 ft 438 kts 339°
2026-05-08 15:39 27.11763 -80.66749 35115 ft 436 kts 339°
2026-05-08 15:40 27.14725 -80.67628 35601 ft 434 kts 339°
2026-05-08 15:40 27.17640 -80.68490 36071 ft 432 kts 339°
2026-05-08 15:40 27.20536 -80.69350 36528 ft 429 kts 339°
2026-05-08 15:40 27.23416 -80.70212 36938 ft 428 kts 339°
2026-05-08 15:41 27.26289 -80.71075 37060 ft 426 kts 338°
2026-05-08 15:41 27.29142 -80.71926 37081 ft 423 kts 339°
2026-05-08 15:41 27.34810 -80.73612 37080 ft 420 kts 338°
2026-05-08 15:42 27.40471 -80.75255 37078 ft 424 kts 344°
2026-05-08 15:42 27.46407 -80.75858 37076 ft 429 kts 348°
2026-05-08 15:43 27.52355 -80.76388 37074 ft 429 kts 348°
2026-05-08 15:43 27.57339 -80.76837 37074 ft 429 kts 348°
2026-05-08 15:44 27.63287 -80.77374 37076 ft 429 kts 348°
2026-05-08 15:44 27.69276 -80.77914 37083 ft 429 kts 348°
2026-05-08 15:45 27.75226 -80.78448 37079 ft 429 kts 348°
2026-05-08 15:45 27.81171 -80.78982 37083 ft 429 kts 347°
2026-05-08 15:46 27.87115 -80.79524 37085 ft 428 kts 347°
2026-05-08 15:46 27.98222 -80.80533 37092 ft 428 kts 347°
2026-05-08 15:47 28.21934 -80.82685 37088 ft 427 kts 347°
2026-05-08 15:47 28.45809 -80.84880 37107 ft 427 kts 346°
2026-05-08 15:48 28.81404 -80.88143 37077 ft 427 kts 346°
2026-05-08 15:49 29.05047 -80.90313 37099 ft 426 kts 345°
2026-05-08 15:49 29.27831 -80.90955 37147 ft 443 kts 359°
2026-05-08 15:50 29.33909 -80.89953 37061 ft 439 kts 356°
2026-05-08 15:50 29.41626 -80.88865 37053 ft 440 kts 356°
2026-05-08 15:51 29.65980 -80.84928 37074 ft 442 kts 356°
2026-05-08 15:51 29.90343 -80.80988 37073 ft 442 kts 356°
2026-05-08 15:52 30.14644 -80.77032 37073 ft 441 kts 356°
2026-05-08 15:52 30.39127 -80.73029 37081 ft 441 kts 356°
2026-05-08 15:53 30.63446 -80.69027 37084 ft 442 kts 355°
2026-05-08 15:53 30.87783 -80.65004 37097 ft 441 kts 355°
2026-05-08 15:54 31.12107 -80.60939 37103 ft 440 kts 354°
2026-05-08 15:54 31.26017 -80.58630 36775 ft 443 kts 354°
2026-05-08 15:54 31.29075 -80.58120 36182 ft 444 kts 355°
2026-05-08 15:55 31.32121 -80.57608 35656 ft 442 kts 355°
2026-05-08 15:55 31.38208 -80.56584 34512 ft 442 kts 355°
2026-05-08 15:55 31.41253 -80.56075 33891 ft 443 kts 355°
2026-05-08 15:56 31.44299 -80.55565 33245 ft 442 kts 356°
2026-05-08 15:56 31.47344 -80.55054 32625 ft 441 kts 356°
2026-05-08 15:56 31.50387 -80.54541 31989 ft 445 kts 356°
2026-05-08 15:56 31.53565 -80.54024 31297 ft 463 kts 357°
2026-05-08 15:57 31.56774 -80.53497 30590 ft 465 kts 358°
2026-05-08 15:57 31.59972 -80.52954 29814 ft 464 kts 358°
2026-05-08 15:57 31.63169 -80.52400 29044 ft 464 kts 359°
2026-05-08 15:57 31.66364 -80.51845 28250 ft 465 kts 359°
2026-05-08 15:58 31.69562 -80.50878 27000 ft 485 kts 10°
2026-05-08 15:58 31.72773 -80.49577 25758 ft 491 kts 11°
2026-05-08 15:58 31.75993 -80.48233 24982 ft 488 kts 11°
2026-05-08 15:58 31.79159 -80.46884 24302 ft 481 kts 12°
2026-05-08 15:59 31.82291 -80.45544 23588 ft 476 kts 12°
2026-05-08 15:59 31.85381 -80.44231 22789 ft 470 kts 12°
2026-05-08 15:59 31.88449 -80.42941 22068 ft 465 kts 11°
2026-05-08 15:59 31.91488 -80.41675 20919 ft 466 kts 11°
2026-05-08 16:00 31.94595 -80.40400 19552 ft 478 kts 12°
2026-05-08 16:00 31.97688 -80.39118 19089 ft 464 kts 12°
2026-05-08 16:00 32.00695 -80.37855 18532 ft 453 kts 12°
2026-05-08 16:00 32.03643 -80.36612 17768 ft 447 kts 13°
2026-05-08 16:01 32.06556 -80.35384 17020 ft 442 kts 13°
2026-05-08 16:01 32.09437 -80.34169 16322 ft 437 kts 13°
2026-05-08 16:01 32.12312 -80.32962 14954 ft 449 kts 13°
2026-05-08 16:01 32.15224 -80.31753 14635 ft 434 kts 13°
2026-05-08 16:02 32.18012 -80.30582 14502 ft 417 kts 13°
2026-05-08 16:02 32.20714 -80.29439 14107 ft 409 kts 13°
2026-05-08 16:02 32.23376 -80.28316 13495 ft 402 kts 13°
2026-05-08 16:02 32.26015 -80.27202 12473 ft 395 kts 13°
2026-05-08 16:03 32.28558 -80.26134 11480 ft 389 kts 13°
2026-05-08 16:03 32.31114 -80.25062 10727 ft 378 kts 13°
2026-05-08 16:03 32.33503 -80.24050 10546 ft 355 kts 13°
2026-05-08 16:03 32.35780 -80.23082 10440 ft 340 kts 12°
2026-05-08 16:04 32.37958 -80.22159 10323 ft 327 kts 12°
2026-05-08 16:04 32.40066 -80.21269 10198 ft 315 kts 12°
2026-05-08 16:04 32.42100 -80.20412 9975 ft 308 kts 11°
2026-05-08 16:04 32.44098 -80.19573 9865 ft 304 kts 11°
2026-05-08 16:05 32.46109 -80.18735 9405 ft 306 kts 12°
2026-05-08 16:05 32.48100 -80.17898 9032 ft 303 kts 12°
2026-05-08 16:05 32.50095 -80.17058 8611 ft 302 kts 12°
2026-05-08 16:05 32.52062 -80.16224 8261 ft 299 kts 13°
2026-05-08 16:06 32.54017 -80.15397 7884 ft 297 kts 13°
2026-05-08 16:06 32.55959 -80.14575 7526 ft 295 kts 13°
2026-05-08 16:06 32.57882 -80.13759 7158 ft 293 kts 13°
2026-05-08 16:06 32.59823 -80.12938 6792 ft 291 kts 14°
2026-05-08 16:07 32.61722 -80.12134 6423 ft 289 kts 14°
2026-05-08 16:07 32.63605 -80.11334 6048 ft 287 kts 15°
2026-05-08 16:07 32.65467 -80.10541 5609 ft 282 kts 15°
2026-05-08 16:07 32.67317 -80.09755 4870 ft 283 kts 16°
2026-05-08 16:08 32.69181 -80.08963 4109 ft 285 kts 17°
2026-05-08 16:08 32.71046 -80.08168 3487 ft 282 kts 19°
2026-05-08 16:08 32.72837 -80.07406 3321 ft 264 kts 19°
2026-05-08 16:08 32.74502 -80.06700 3204 ft 245 kts 19°
2026-05-08 16:09 32.76045 -80.06042 3101 ft 226 kts 20°
2026-05-08 16:09 32.76957 -80.05527 3039 ft 215 kts 32°
2026-05-08 16:09 32.78315 -80.03906 2729 ft 206 kts 53°
2026-05-08 16:09 32.79155 -80.02558 2449 ft 202 kts 52°
2026-05-08 16:10 32.79974 -80.01252 2150 ft 191 kts 52°
2026-05-08 16:10 32.80581 -80.00508 1954 ft 180 kts 40°
2026-05-08 16:10 32.81625 -79.99807 1807 ft 166 kts 20°
2026-05-08 16:10 32.82708 -79.99504 1521 ft 157 kts
2026-05-08 16:11 32.83745 -79.99561 1409 ft 144 kts 352°
2026-05-08 16:11 32.84690 -79.99920 1178 ft 142 kts 338°
2026-05-08 16:11 32.85561 -80.00487 990 ft 144 kts 332°
2026-05-08 16:11 32.86426 -80.01118 732 ft 147 kts 330°
2026-05-08 16:12 32.87276 -80.01773 541 ft 144 kts 329°
2026-05-08 16:12 32.88113 -80.02401 336 ft 142 kts 330°
2026-05-08 16:12 32.88965 -80.03044 125 ft 144 kts 329°
2026-05-08 16:12 32.89785 -80.03660 39 ft 123 kts 327°
2026-05-08 16:13 32.90253 -80.04014 41 ft 36 kts 328°
2026-05-08 16:13 32.90393 -80.04119 40 ft 11 kts 340°
2026-05-08 16:13 32.90416 -80.04106 40 ft 3 kts 49°
2026-05-08 16:13 32.90444 -80.04050 41 ft 11 kts 57°
2026-05-08 16:14 32.90492 -80.03962 41 ft 13 kts 57°
2026-05-08 16:14 32.90472 -80.03910 40 ft 9 kts 137°
2026-05-08 16:14 32.90398 -80.03827 41 ft 16 kts 135°
2026-05-08 16:14 32.90321 -80.03744 41 ft 13 kts 139°
2026-05-08 16:15 32.90257 -80.03676 43 ft 12 kts 138°
2026-05-08 16:15 32.90182 -80.03650 43 ft 13 kts 197°
2026-05-08 16:15 32.90088 -80.03701 41 ft 16 kts 205°
2026-05-08 16:15 32.89976 -80.03762 40 ft 19 kts 204°
2026-05-08 16:16 32.89851 -80.03829 39 ft 21 kts 205°
2026-05-08 16:16 32.89712 -80.03899 40 ft 22 kts 204°
2026-05-08 16:16 32.89575 -80.03974 39 ft 23 kts 205°
2026-05-08 16:16 32.89426 -80.04054 41 ft 24 kts 204°
2026-05-08 16:17 32.89306 -80.04115 41 ft 12 kts 193°
2026-05-08 16:17 32.89266 -80.04039 41 ft 14 kts 102°
2026-05-08 16:17 32.89242 -80.03908 41 ft 17 kts 102°
2026-05-08 16:17 32.89218 -80.03766 41 ft 17 kts 101°
2026-05-08 16:18 32.89196 -80.03634 39 ft 15 kts 103°
2026-05-08 16:18 32.89109 -80.03599 40 ft 15 kts 183°
2026-05-08 16:18 32.88999 -80.03606 41 ft 17 kts 184°
2026-05-08 16:18 32.88877 -80.03625 41 ft 18 kts 188°
2026-05-08 16:19 32.88766 -80.03665 41 ft 16 kts 236°
2026-05-08 16:19 32.88743 -80.03760 41 ft 7 kts 224°
2026-05-08 16:19 32.88706 -80.03754 41 ft 5 kts 180°
2026-05-08 16:19 32.88671 -80.03767 41 ft 5 kts 197°
2026-05-08 16:20 32.88653 -80.03773 41 ft 0 kts 197°
2026-05-08 16:20 32.88648 -80.03775 41 ft 1 kts 197°
2026-05-08 16:20 32.88647 -80.03775 41 ft 0 kts 197°